Location: Unspecified
(48.8656°N, 0.0000°E)
Time: 04:51:48
(UTC+00:00)

SR - Pass Details

Date: 28 June 2019
Orbit: 580 x 876 km, 66.7° (Epoch: 22 July)

Event Time Altitude Azimuth Distance (km) Brightness Sun altitude
Rises 05:00:37 0° 282° (WNW) 2,823 ? 7.8°
Reaches altitude 10° 05:04:11 10° 314° (NW) 1,959 ? 8.3°
Maximum altitude 05:05:59 12° 338° (NNW) 1,838 ? 8.5°
Drops below altitude 10° 05:07:50 10° 2° (N) 2,011 ? 8.8°
Sets 05:11:37 0° 33° (NNE) 2,990 ? 9.4°
